TOM173 LOWI-LSZH

Flight info

Callsign TOM173
Flight time 0h 28m
Altitude 18000
Route KPT L856 NEGRA
Aircraft B38M/M-SDE1FGHILORVWXY/HB1

Departure

Time 2026-05-05 11:12
Airport Innsbruck Airport (LOWI)

Arrival

Time 2026-05-05 11:40
Airport Zürich Airport (LSZH)
Time Latitude Longitude Altitude Speed Heading
2026-05-05 10:55 47.25818 11.34989 1894 ft 0 kts 171°
2026-05-05 11:04 47.25819 11.34989 1906 ft 2 kts 171°
2026-05-05 11:05 47.25837 11.34985 1902 ft 3 kts 171°
2026-05-05 11:05 47.25855 11.34982 1904 ft 3 kts 203°
2026-05-05 11:05 47.25867 11.35000 1894 ft 2 kts 262°
2026-05-05 11:05 47.25867 11.35002 1895 ft 0 kts 262°
2026-05-05 11:07 47.25865 11.34977 1893 ft 7 kts 265°
2026-05-05 11:08 47.25857 11.34856 1906 ft 16 kts 262°
2026-05-05 11:08 47.25839 11.34687 1904 ft 18 kts 261°
2026-05-05 11:08 47.25819 11.34505 1896 ft 19 kts 261°
2026-05-05 11:08 47.25800 11.34323 1906 ft 20 kts 261°
2026-05-05 11:09 47.25779 11.34131 1895 ft 21 kts 261°
2026-05-05 11:09 47.25787 11.33929 1902 ft 20 kts 294°
2026-05-05 11:09 47.25862 11.33767 1903 ft 21 kts 307°
2026-05-05 11:09 47.25927 11.33607 1900 ft 17 kts 281°
2026-05-05 11:10 47.25915 11.33422 1902 ft 19 kts 261°
2026-05-05 11:10 47.25894 11.33258 1906 ft 13 kts 247°
2026-05-05 11:10 47.25841 11.33154 1902 ft 10 kts 255°
2026-05-05 11:10 47.25876 11.33120 1906 ft 5 kts 41°
2026-05-05 11:11 47.25884 11.33147 1899 ft 0 kts 77°
2026-05-05 11:11 47.25891 11.33202 1904 ft 30 kts 79°
2026-05-05 11:11 47.25965 11.33911 1906 ft 108 kts 82°
2026-05-05 11:11 47.26122 11.35313 1983 ft 163 kts 81°
2026-05-05 11:12 47.26328 11.37040 2670 ft 180 kts 82°
2026-05-05 11:12 47.26557 11.38973 3413 ft 202 kts 79°
2026-05-05 11:12 47.27094 11.40949 4204 ft 215 kts 60°
2026-05-05 11:12 47.28119 11.42602 5110 ft 221 kts 46°
2026-05-05 11:13 47.29235 11.44243 5805 ft 235 kts 53°
2026-05-05 11:13 47.30006 11.46358 6367 ft 236 kts 77°
2026-05-05 11:13 47.30083 11.48717 7033 ft 232 kts 109°
2026-05-05 11:13 47.29269 11.50697 7473 ft 231 kts 142°
2026-05-05 11:14 47.27791 11.51689 7720 ft 242 kts 176°
2026-05-05 11:14 47.26142 11.51152 8220 ft 259 kts 210°
2026-05-05 11:14 47.24895 11.49123 8848 ft 275 kts 241°
2026-05-05 11:14 47.24366 11.46431 9942 ft 280 kts 258°
2026-05-05 11:15 47.24311 11.43481 10574 ft 297 kts 272°
2026-05-05 11:15 47.24797 11.40515 11553 ft 297 kts 286°
2026-05-05 11:15 47.25604 11.37700 12448 ft 304 kts 290°
2026-05-05 11:15 47.26351 11.34723 12923 ft 318 kts 280°
2026-05-05 11:16 47.26931 11.31471 13282 ft 339 kts 282°
2026-05-05 11:16 47.27587 11.28035 13626 ft 359 kts 283°
2026-05-05 11:16 47.28290 11.24456 13853 ft 378 kts 283°
2026-05-05 11:16 47.29045 11.20669 14162 ft 393 kts 284°
2026-05-05 11:17 47.29833 11.16766 14620 ft 403 kts 284°
2026-05-05 11:17 47.30636 11.12799 15292 ft 406 kts 284°
2026-05-05 11:17 47.31449 11.08785 15885 ft 411 kts 284°
2026-05-05 11:17 47.32270 11.04731 16490 ft 415 kts 284°
2026-05-05 11:18 47.33096 11.00639 17072 ft 419 kts 284°
2026-05-05 11:18 47.33930 10.96502 17635 ft 424 kts 284°
2026-05-05 11:18 47.34774 10.92311 17812 ft 429 kts 284°
2026-05-05 11:18 47.35627 10.88062 17814 ft 434 kts 284°
2026-05-05 11:19 47.36485 10.83779 17846 ft 436 kts 284°
2026-05-05 11:19 47.37340 10.79498 17844 ft 435 kts 284°
2026-05-05 11:19 47.38323 10.75272 17829 ft 438 kts 293°
2026-05-05 11:19 47.39993 10.71508 17852 ft 442 kts 309°
2026-05-05 11:20 47.42288 10.68463 17840 ft 446 kts 321°
2026-05-05 11:20 47.44811 10.65757 17856 ft 450 kts 322°
2026-05-05 11:20 47.47365 10.63077 17860 ft 450 kts 322°
2026-05-05 11:20 47.49931 10.60416 17852 ft 451 kts 323°
2026-05-05 11:21 47.52507 10.57763 17847 ft 451 kts 323°
2026-05-05 11:21 47.55084 10.55112 17839 ft 453 kts 323°
2026-05-05 11:21 47.57679 10.52443 17844 ft 454 kts 323°
2026-05-05 11:21 47.60277 10.49768 17868 ft 455 kts 323°
2026-05-05 11:22 47.62882 10.47083 17841 ft 456 kts 323°
2026-05-05 11:22 47.65484 10.44396 17855 ft 456 kts 323°
2026-05-05 11:22 47.68089 10.41704 17846 ft 456 kts 323°
2026-05-05 11:22 47.70580 10.38813 17829 ft 453 kts 313°
2026-05-05 11:23 47.72481 10.35143 17848 ft 447 kts 296°
2026-05-05 11:23 47.73663 10.30920 17847 ft 441 kts 281°
2026-05-05 11:23 47.74077 10.26453 17854 ft 436 kts 269°
2026-05-05 11:23 47.74135 10.21949 17856 ft 436 kts 267°
2026-05-05 11:24 47.74115 10.17446 17853 ft 435 kts 266°
2026-05-05 11:24 47.74075 10.14477 17853 ft 435 kts 265°
2026-05-05 11:24 47.73994 10.09930 17831 ft 441 kts 265°
2026-05-05 11:24 47.73899 10.05427 17888 ft 431 kts 265°
2026-05-05 11:25 47.73793 10.00963 17863 ft 434 kts 265°
2026-05-05 11:25 47.73684 9.96488 17861 ft 434 kts 265°
2026-05-05 11:25 47.73573 9.92008 17864 ft 434 kts 265°
2026-05-05 11:25 47.73460 9.87530 17870 ft 434 kts 265°
2026-05-05 11:26 47.73345 9.83043 17893 ft 434 kts 265°
2026-05-05 11:26 47.73228 9.78568 17887 ft 434 kts 265°
2026-05-05 11:26 47.73110 9.74087 17864 ft 434 kts 265°
2026-05-05 11:26 47.72989 9.69608 17874 ft 434 kts 265°
2026-05-05 11:27 47.72867 9.65142 17895 ft 433 kts 265°
2026-05-05 11:27 47.72742 9.60677 17878 ft 432 kts 265°
2026-05-05 11:27 47.72617 9.56216 17879 ft 432 kts 265°
2026-05-05 11:27 47.72488 9.51759 17879 ft 432 kts 265°
2026-05-05 11:28 47.72330 9.47328 17459 ft 427 kts 259°
2026-05-05 11:28 47.71557 9.43161 16980 ft 413 kts 244°
2026-05-05 11:28 47.70117 9.39548 16500 ft 402 kts 232°
2026-05-05 11:28 47.68476 9.36224 16011 ft 396 kts 231°
2026-05-05 11:29 47.66820 9.33038 15542 ft 393 kts 230°
2026-05-05 11:29 47.65214 9.29771 15057 ft 392 kts 239°
2026-05-05 11:29 47.64204 9.26024 14592 ft 393 kts 253°
2026-05-05 11:29 47.63833 9.22018 14135 ft 393 kts 268°
2026-05-05 11:30 47.63927 9.17993 13681 ft 388 kts 269°
2026-05-05 11:30 47.64000 9.14008 13167 ft 385 kts 269°
2026-05-05 11:30 47.64059 9.10051 12657 ft 382 kts 269°
2026-05-05 11:30 47.64109 9.06125 12158 ft 380 kts 269°
2026-05-05 11:31 47.64155 9.02266 11669 ft 378 kts 269°
2026-05-05 11:31 47.64200 8.98382 11181 ft 376 kts 268°
2026-05-05 11:31 47.64242 8.94525 10692 ft 373 kts 268°
2026-05-05 11:31 47.64284 8.90685 10220 ft 372 kts 268°
2026-05-05 11:32 47.64322 8.86863 9736 ft 369 kts 268°
2026-05-05 11:32 47.64361 8.83077 9244 ft 366 kts 268°
2026-05-05 11:32 47.64398 8.79319 8778 ft 362 kts 268°
2026-05-05 11:32 47.64433 8.75614 8343 ft 358 kts 268°
2026-05-05 11:33 47.64466 8.71946 7942 ft 353 kts 269°
2026-05-05 11:33 47.64497 8.68312 7525 ft 352 kts 269°
2026-05-05 11:33 47.64526 8.64704 7103 ft 347 kts 269°
2026-05-05 11:33 47.64555 8.61202 6678 ft 333 kts 269°
2026-05-05 11:34 47.64582 8.57841 6287 ft 319 kts 269°
2026-05-05 11:34 47.64605 8.54631 5910 ft 304 kts 269°
2026-05-05 11:34 47.64627 8.51565 5586 ft 291 kts 269°
2026-05-05 11:34 47.64648 8.48636 5257 ft 278 kts 269°
2026-05-05 11:35 47.64665 8.45843 5033 ft 263 kts 269°
2026-05-05 11:35 47.64681 8.43199 4815 ft 250 kts 270°
2026-05-05 11:35 47.64592 8.40709 4645 ft 233 kts 259°
2026-05-05 11:35 47.64055 8.38541 4454 ft 220 kts 237°
2026-05-05 11:36 47.63018 8.36965 4234 ft 213 kts 210°
2026-05-05 11:36 47.61625 8.36425 4042 ft 207 kts 178°
2026-05-05 11:36 47.60305 8.37072 3948 ft 197 kts 147°
2026-05-05 11:36 47.59290 8.38373 4022 ft 190 kts 140°
2026-05-05 11:37 47.58333 8.39711 4015 ft 189 kts 139°
2026-05-05 11:37 47.57361 8.41059 3817 ft 193 kts 140°
2026-05-05 11:37 47.56386 8.42401 3576 ft 190 kts 140°
2026-05-05 11:37 47.55427 8.43719 3341 ft 186 kts 139°
2026-05-05 11:38 47.54490 8.45000 3120 ft 179 kts 139°
2026-05-05 11:38 47.53623 8.46193 2914 ft 165 kts 139°
2026-05-05 11:38 47.52802 8.47318 2714 ft 160 kts 140°
2026-05-05 11:38 47.51988 8.48426 2486 ft 158 kts 139°
2026-05-05 11:39 47.51183 8.49531 2289 ft 158 kts 140°
2026-05-05 11:39 47.50389 8.50632 2069 ft 156 kts 140°
2026-05-05 11:39 47.49595 8.51715 1848 ft 155 kts 137°
2026-05-05 11:39 47.48799 8.52794 1645 ft 155 kts 139°
2026-05-05 11:40 47.48020 8.53861 1453 ft 151 kts 138°
2026-05-05 11:40 47.47320 8.54828 1412 ft 117 kts 135°
2026-05-05 11:40 47.46910 8.55382 1406 ft 61 kts 137°
2026-05-05 11:40 47.46703 8.55630 1411 ft 37 kts 155°
2026-05-05 11:41 47.46571 8.55689 1410 ft 0 kts 166°